TimeCST,TemperatureF,Dew PointF,Humidity,Sea Level PressureIn,VisibilityMPH,Wind Direction,Wind SpeedMPH,Gust SpeedMPH,PrecipitationIn,Events,Conditions,WindDirDegrees,DateUTC
12:53 AM,57.9,55.0,90,29.98,10.0,SW,3.5,-,N/A,,Mostly Cloudy,230,2013-02-08 06:53:00
1:53 AM,57.0,55.0,93,29.99,10.0,Calm,Calm,-,N/A,,Overcast,0,2013-02-08 07:53:00
2:53 AM,57.9,55.0,90,29.98,10.0,Calm,Calm,-,N/A,,Overcast,0,2013-02-08 08:53:00
3:53 AM,57.9,55.0,90,29.99,10.0,Calm,Calm,-,N/A,,Overcast,0,2013-02-08 09:53:00
4:53 AM,55.9,55.0,97,30.00,8.0,Calm,Calm,-,N/A,,Overcast,0,2013-02-08 10:53:00
5:51 AM,53.6,53.6,100,30.00,3.0,Calm,Calm,-,N/A,,Mostly Cloudy,0,2013-02-08 11:51:00
5:53 AM,54.0,54.0,100,30.02,3.0,Calm,Calm,-,N/A,,Mostly Cloudy,0,2013-02-08 11:53:00
6:27 AM,57.2,55.4,94,30.01,7.0,Calm,Calm,-,N/A,,Overcast,0,2013-02-08 12:27:00
6:53 AM,57.9,55.0,90,30.06,10.0,NW,13.8,19.6,N/A,,Overcast,320,2013-02-08 12:53:00
7:53 AM,57.9,55.0,90,30.09,9.0,North,10.4,-,N/A,,Overcast,350,2013-02-08 13:53:00
8:53 AM,55.9,51.1,84,30.13,10.0,North,13.8,20.7,N/A,,Overcast,350,2013-02-08 14:53:00
9:13 AM,55.4,50.0,82,30.12,10.0,North,15.0,-,N/A,,Overcast,10,2013-02-08 15:13:00
9:53 AM,55.9,48.9,77,30.17,10.0,North,17.3,24.2,N/A,,Overcast,10,2013-02-08 15:53:00
10:53 AM,55.0,46.0,72,30.20,10.0,North,20.7,26.5,N/A,,Overcast,10,2013-02-08 16:53:00
11:53 AM,55.9,46.0,69,30.20,10.0,North,16.1,23.0,N/A,,Overcast,10,2013-02-08 17:53:00
12:53 PM,55.0,45.0,69,30.20,10.0,North,19.6,26.5,N/A,,Overcast,10,2013-02-08 18:53:00
1:53 PM,55.0,44.1,67,30.20,10.0,NNE,13.8,-,N/A,,Overcast,30,2013-02-08 19:53:00
2:53 PM,55.0,43.0,64,30.21,10.0,North,17.3,21.9,N/A,,Overcast,10,2013-02-08 20:53:00
3:38 PM,55.4,42.8,63,30.18,10.0,NE,12.7,-,N/A,,Scattered Clouds,40,2013-02-08 21:38:00
3:53 PM,55.9,42.1,60,30.20,10.0,NNE,11.5,-,N/A,,Clear,30,2013-02-08 21:53:00
4:53 PM,55.0,42.1,62,30.20,10.0,NNE,10.4,-,N/A,,Clear,20,2013-02-08 22:53:00
5:53 PM,52.0,42.1,69,30.22,10.0,NNE,6.9,-,N/A,,Clear,20,2013-02-08 23:53:00
6:53 PM,48.9,42.1,77,30.24,10.0,North,5.8,-,N/A,,Clear,360,2013-02-09 00:53:00
7:53 PM,46.9,41.0,80,30.25,10.0,North,9.2,-,N/A,,Clear,10,2013-02-09 01:53:00
8:53 PM,46.0,39.9,79,30.26,8.0,North,9.2,-,N/A,,Clear,10,2013-02-09 02:53:00
9:53 PM,45.0,39.9,82,30.26,7.0,NNE,9.2,-,N/A,,Clear,20,2013-02-09 03:53:00
10:53 PM,43.0,39.0,86,30.26,6.0,North,5.8,-,N/A,,Clear,10,2013-02-09 04:53:00
11:53 PM,42.1,37.9,85,30.27,7.0,NNE,4.6,-,N/A,,Clear,30,2013-02-09 05:53:00